Find Shiyan 24C-02

NORAD ID: 58651 Int'l Des: 2023-206 Owner: CASC Country: CN operational
LEOCIRCULARRETROGRADESSO

Historical Position — Jun 17, 2026

正在加载3D地球...

About Shiyan 24C-02

Shiyan 24C-02 (NORAD 58651) is a satellite launched Dec 25, 2023 by CASC of CN. It operates in LEO, CIRCULAR, RETROGRADE, SSO orbit with a mass of 80.00 kg. Last tracked position: Jun 17, 2026.

高度历史

Loading altitude history...

两行轨道根数

1 58651U 23206B 26168.61785512 .00001138 00000-0 10041-3 0 9998
2 58651 97.4070 136.4161 0004048 99.8565 260.3115 14.98217470135374
Epoch: Jun 17, 2026 • Age: 649 hours

当前状态

Position data unavailable
发射日期 Dec 25, 2023
运行时间 2.5 years
类型 other

技术详情

分类 Payload
质量 80.00 kg
干质量 80.00 kg
总质量 80.00 kg
长度 1.50 m
直径 1.50 m
跨度 8.00 m
形状 Box+panels
制造商 SECM
阶段状态 In Orbit
所有者/国家 CASC/CN

Most Searched